When you browse on this site, cookies collect data to enhance your experience and personalize the content and advertising you see.
Visit our Privacy Policy to learn more. By continuing to use the site, you agree to this use of cookies and data.

Hourly Weather Pernik

Today, 10 July, Friday

Time Temperature Precipitation Wind Pressure Humidity
00:00 +15°C° 0 mm 1 mps 693 mmHg 82%
01:00 +15°C° 0 mm 1 mps 693 mmHg 83%
02:00 +13°C° 0 mm 0 mps 693 mmHg 83%
03:00 +13°C° 0 mm 0 mps 693 mmHg 85%
04:00 +13°C° 0 mm 0 mps 693 mmHg 86%
05:00 +12°C° 0 mm 0 mps 693 mmHg 87%
06:00 +15°C° 0 mm 1 mps 693 mmHg 82%
07:00 +18°C° 0 mm 1 mps 694 mmHg 76%
08:00 +20°C° 0 mm 1 mps 694 mmHg 71%
09:00 +22°C° 0 mm 1 mps 694 mmHg 65%
10:00 +23°C° 0 mm 2 mps 695 mmHg 59%
11:00 +25°C° 0 mm 2 mps 695 mmHg 52%
12:00 +26°C° 0 mm 2 mps 695 mmHg 50%
13:00 +26°C° 0 mm 3 mps 694 mmHg 48%
14:00 +27°C° 0 mm 3 mps 694 mmHg 46%
15:00 +27°C° 0 mm 3 mps 694 mmHg 48%
16:00 +27°C° 0 mm 3 mps 694 mmHg 49%
17:00 +27°C° 0 mm 3 mps 693 mmHg 51%
18:00 +24°C° 0 mm 2 mps 693 mmHg 58%
19:00 +21°C° 0 mm 2 mps 693 mmHg 65%
20:00 +19°C° 0 mm 2 mps 692 mmHg 71%
21:00 +18°C° 0 mm 2 mps 692 mmHg 73%
22:00 +18°C° 0 mm 1 mps 692 mmHg 74%
23:00 +16°C° 0 mm 1 mps 693 mmHg 75%

Tomorrow, 11 July, Saturday

Time Temperature Precipitation Wind Pressure Humidity
00:00 +16°C° 0 mm 1 mps 692 mmHg 77%
01:00 +15°C° 0 mm 1 mps 692 mmHg 79%
02:00 +15°C° 0 mm 1 mps 692 mmHg 81%
03:00 +14°C° 0 mm 1 mps 692 mmHg 82%
04:00 +14°C° 0 mm 1 mps 692 mmHg 84%
05:00 +13°C° 0 mm 1 mps 692 mmHg 85%
06:00 +15°C° 0 mm 1 mps 692 mmHg 80%
07:00 +18°C° 0 mm 1 mps 692 mmHg 74%
08:00 +20°C° 0 mm 1 mps 693 mmHg 68%
09:00 +22°C° 0 mm 1 mps 693 mmHg 62%
10:00 +24°C° 0 mm 1 mps 693 mmHg 57%
11:00 +25°C° 0 mm 2 mps 693 mmHg 51%
12:00 +26°C° 0 mm 2 mps 693 mmHg 49%
13:00 +27°C° 0 mm 2 mps 692 mmHg 48%
14:00 +28°C° 0 mm 2 mps 692 mmHg 46%
15:00 +27°C° 0 mm 2 mps 692 mmHg 47%
16:00 +27°C° 0 mm 2 mps 692 mmHg 49%
17:00 +27°C° 0 mm 2 mps 691 mmHg 50%
18:00 +25°C° 0 mm 2 mps 691 mmHg 57%
19:00 +23°C° 0 mm 2 mps 691 mmHg 64%
20:00 +21°C° 0 mm 1 mps 690 mmHg 71%
21:00 +20°C° 0 mm 1 mps 690 mmHg 72%
22:00 +19°C° 0 mm 1 mps 690 mmHg 74%
23:00 +18°C° 0 mm 1 mps 690 mmHg 76%

Day after tomorrow, 12 July, Sunday

Time Temperature Precipitation Wind Pressure Humidity
00:00 +18°C° 0 mm 1 mps 690 mmHg 79%
01:00 +15°C° 0 mm 0 mps 690 mmHg 81%
02:00 +15°C° 0 mm 0 mps 690 mmHg 84%
03:00 +14°C° 0 mm 0 mps 690 mmHg 85%
04:00 +14°C° 0 mm 0 mps 690 mmHg 86%
05:00 +14°C° 0 mm 0 mps 690 mmHg 87%
06:00 +18°C° 0 mm 1 mps 691 mmHg 82%
07:00 +18°C° 0 mm 2 mps 691 mmHg 78%
08:00 +20°C° 0 mm 3 mps 692 mmHg 74%
09:00 +21°C° 0 mm 3 mps 692 mmHg 71%
10:00 +21°C° 0 mm 4 mps 692 mmHg 68%
11:00 +22°C° 0 mm 4 mps 693 mmHg 66%
12:00 +23°C° 0 mm 4 mps 693 mmHg 65%
13:00 +23°C° 0 mm 5 mps 692 mmHg 65%
14:00 +23°C° 0 mm 5 mps 692 mmHg 64%
15:00 +22°C° 0 mm 5 mps 692 mmHg 65%
16:00 +22°C° 0 mm 5 mps 692 mmHg 67%
17:00 +21°C° 0 mm 5 mps 692 mmHg 68%
18:00 +19°C° 0 mm 4 mps 692 mmHg 72%
19:00 +18°C° 0 mm 3 mps 692 mmHg 76%
20:00 +16°C° 0 mm 3 mps 692 mmHg 81%
21:00 +14°C° 0 mm 3 mps 692 mmHg 82%
22:00 +14°C° 0 mm 2 mps 692 mmHg 84%
23:00 +13°C° 0 mm 2 mps 692 mmHg 86%

13 July, Monday

Time Temperature Precipitation Wind Pressure Humidity
00:00 +12°C° 0 mm 2 mps 692 mmHg 87%
01:00 +12°C° 0 mm 2 mps 691 mmHg 88%
02:00 +10°C° 0 mm 2 mps 691 mmHg 89%
03:00 +10°C° 0 mm 2 mps 691 mmHg 89%
04:00 +9°C° 0 mm 2 mps 691 mmHg 89%
05:00 +9°C° 0 mm 1 mps 691 mmHg 90%
06:00 +10°C° 0 mm 2 mps 691 mmHg 84%
07:00 +12°C° 0 mm 2 mps 692 mmHg 78%
08:00 +12°C° 0 mm 3 mps 692 mmHg 72%
09:00 +13°C° 0 mm 3 mps 692 mmHg 67%
10:00 +16°C° 0 mm 3 mps 692 mmHg 62%
11:00 +17°C° 0 mm 4 mps 693 mmHg 58%
12:00 +18°C° 0 mm 4 mps 692 mmHg 56%
13:00 +19°C° 0 mm 4 mps 692 mmHg 55%
14:00 +20°C° 0 mm 4 mps 692 mmHg 54%
15:00 +20°C° 0 mm 4 mps 692 mmHg 55%
16:00 +20°C° 0 mm 4 mps 692 mmHg 57%
17:00 +20°C° 0 mm 3 mps 691 mmHg 59%
18:00 +18°C° 0 mm 3 mps 691 mmHg 65%
19:00 +17°C° 0 mm 2 mps 691 mmHg 71%
20:00 +15°C° 0 mm 2 mps 691 mmHg 77%
21:00 +14°C° 0 mm 1 mps 691 mmHg 80%
22:00 +13°C° 0 mm 1 mps 691 mmHg 82%
23:00 +12°C° 0 mm 1 mps 691 mmHg 84%

14 July, Tuesday

Time Temperature Precipitation Wind Pressure Humidity
00:00 +12°C° 0 mm 1 mps 691 mmHg 85%
01:00 +11°C° 0 mm 1 mps 691 mmHg 86%
02:00 +11°C° 0 mm 1 mps 691 mmHg 87%
03:00 +11°C° 0 mm 1 mps 691 mmHg 88%
04:00 +10°C° 0 mm 1 mps 691 mmHg 88%
05:00 +10°C° 0 mm 1 mps 691 mmHg 89%
06:00 +12°C° 0 mm 1 mps 691 mmHg 84%
07:00 +14°C° 0 mm 1 mps 692 mmHg 78%
08:00 +16°C° 0 mm 1 mps 692 mmHg 73%
09:00 +18°C° 0 mm 1 mps 692 mmHg 68%
10:00 +20°C° 0 mm 1 mps 692 mmHg 64%
11:00 +22°C° 0 mm 1 mps 693 mmHg 59%
12:00 +22°C° 0 mm 1 mps 693 mmHg 57%
13:00 +23°C° 0 mm 1 mps 692 mmHg 55%
14:00 +24°C° 0 mm 1 mps 692 mmHg 52%
15:00 +24°C° 0 mm 1 mps 692 mmHg 52%
16:00 +23°C° 0 mm 1 mps 692 mmHg 53%
17:00 +23°C° 0 mm 1 mps 691 mmHg 53%
18:00 +21°C° 0 mm 1 mps 691 mmHg 60%
19:00 +20°C° 0 mm 1 mps 691 mmHg 67%
20:00 +18°C° 0 mm 1 mps 691 mmHg 73%
21:00 +16°C° 0 mm 1 mps 691 mmHg 76%
22:00 +15°C° 0 mm 1 mps 691 mmHg 78%
23:00 +14°C° 0 mm 1 mps 691 mmHg 80%

15 July, Wednesday

Time Temperature Precipitation Wind Pressure Humidity
00:00 +14°C° 0 mm 1 mps 691 mmHg 81%
01:00 +13°C° 0 mm 1 mps 691 mmHg 82%
02:00 +13°C° 0 mm 1 mps 691 mmHg 84%
03:00 +11°C° 0 mm 0 mps 691 mmHg 85%
04:00 +11°C° 0 mm 0 mps 691 mmHg 85%
05:00 +11°C° 0 mm 0 mps 692 mmHg 86%
06:00 +13°C° 0 mm 0 mps 692 mmHg 80%
07:00 +15°C° 0 mm 0 mps 692 mmHg 74%
08:00 +17°C° 0 mm 0 mps 693 mmHg 67%
09:00 +20°C° 0 mm 1 mps 693 mmHg 62%
10:00 +22°C° 0 mm 1 mps 693 mmHg 57%
11:00 +24°C° 0 mm 1 mps 694 mmHg 51%
12:00 +25°C° 0 mm 1 mps 694 mmHg 49%
13:00 +25°C° 0 mm 1 mps 693 mmHg 46%
14:00 +26°C° 0 mm 1 mps 693 mmHg 43%
15:00 +26°C° 0 mm 1 mps 693 mmHg 45%
16:00 +26°C° 0 mm 1 mps 693 mmHg 46%
17:00 +26°C° 0 mm 1 mps 692 mmHg 47%
18:00 +24°C° 0 mm 1 mps 692 mmHg 54%
19:00 +22°C° 0 mm 1 mps 692 mmHg 61%
20:00 +20°C° 0 mm 1 mps 691 mmHg 69%
21:00 +19°C° 0 mm 1 mps 691 mmHg 71%
22:00 +18°C° 0 mm 1 mps 691 mmHg 74%
23:00 +16°C° 0 mm 1 mps 692 mmHg 76%
Show more